Hourly Weather Abadin

Today, 25 October, Sunday

Time Temperature Precipitation Wind Pressure Humidity
00:00 +10°C° 1.6 mm 4 mps 702 mmHg 96%
01:00 +10°C° 1.6 mm 4 mps 701 mmHg 95%
02:00 +8°C° 1.6 mm 4 mps 701 mmHg 95%
03:00 +7°C° 0.2 mm 4 mps 701 mmHg 95%
04:00 +8°C° 0.2 mm 3 mps 701 mmHg 95%
05:00 +7°C° 0.2 mm 3 mps 701 mmHg 96%
06:00 +7°C° 0.3 mm 3 mps 702 mmHg 94%
07:00 +7°C° 0.3 mm 4 mps 702 mmHg 92%
08:00 +7°C° 0.3 mm 4 mps 702 mmHg 90%
09:00 +7°C° 0.5 mm 4 mps 702 mmHg 90%
10:00 +7°C° 0.5 mm 4 mps 702 mmHg 90%
11:00 +7°C° 0.5 mm 4 mps 702 mmHg 89%
12:00 +7°C° 0.4 mm 4 mps 702 mmHg 87%
13:00 +7°C° 0.4 mm 4 mps 702 mmHg 85%
14:00 +7°C° 0.4 mm 4 mps 702 mmHg 83%
15:00 +6°C° 0.3 mm 4 mps 702 mmHg 86%
16:00 +7°C° 0.3 mm 3 mps 702 mmHg 90%
17:00 +5°C° 0.3 mm 3 mps 702 mmHg 93%
18:00 +4°C° 0.3 mm 3 mps 703 mmHg 94%
19:00 +4°C° 0.3 mm 3 mps 703 mmHg 94%
20:00 +4°C° 0.3 mm 3 mps 703 mmHg 95%
21:00 +4°C° 0.4 mm 3 mps 703 mmHg 95%
22:00 +4°C° 0.4 mm 3 mps 704 mmHg 96%
23:00 +4°C° 0.4 mm 3 mps 704 mmHg 96%

Tomorrow, 26 October, Monday

Time Temperature Precipitation Wind Pressure Humidity
00:00 +4°C° 0.2 mm 3 mps 704 mmHg 96%
01:00 +5°C° 0.2 mm 2 mps 704 mmHg 97%
02:00 +4°C° 0.2 mm 2 mps 704 mmHg 97%
03:00 +4°C° 0.1 mm 2 mps 705 mmHg 97%
04:00 +4°C° 0.1 mm 2 mps 705 mmHg 97%
05:00 +4°C° 0.1 mm 2 mps 705 mmHg 97%
06:00 +5°C° 0.1 mm 2 mps 706 mmHg 95%
07:00 +5°C° 0.1 mm 3 mps 706 mmHg 94%
08:00 +5°C° 0.1 mm 3 mps 706 mmHg 93%
09:00 +7°C° 0.2 mm 3 mps 707 mmHg 89%
10:00 +8°C° 0.2 mm 3 mps 707 mmHg 84%
11:00 +9°C° 0.2 mm 3 mps 707 mmHg 80%
12:00 +9°C° 0.2 mm 3 mps 707 mmHg 80%
13:00 +9°C° 0.2 mm 3 mps 707 mmHg 79%
14:00 +9°C° 0.2 mm 3 mps 707 mmHg 79%
15:00 +8°C° 0.1 mm 3 mps 707 mmHg 84%
16:00 +7°C° 0.1 mm 3 mps 707 mmHg 88%
17:00 +6°C° 0.1 mm 2 mps 707 mmHg 93%
18:00 +6°C° 0 mm 2 mps 707 mmHg 93%
19:00 +5°C° 0 mm 3 mps 707 mmHg 94%
20:00 +5°C° 0 mm 3 mps 707 mmHg 94%
21:00 +5°C° 0 mm 3 mps 707 mmHg 93%
22:00 +7°C° 0 mm 3 mps 707 mmHg 92%
23:00 +6°C° 0 mm 4 mps 707 mmHg 91%

Day after tomorrow, 27 October, Tuesday

Time Temperature Precipitation Wind Pressure Humidity
00:00 +6°C° 0 mm 4 mps 706 mmHg 89%
01:00 +6°C° 0 mm 4 mps 706 mmHg 88%
02:00 +7°C° 0 mm 5 mps 705 mmHg 87%
03:00 +7°C° 0.1 mm 5 mps 705 mmHg 87%
04:00 +7°C° 0.1 mm 5 mps 705 mmHg 88%
05:00 +7°C° 0.1 mm 5 mps 704 mmHg 89%
06:00 +8°C° 0.2 mm 5 mps 704 mmHg 90%
07:00 +8°C° 0.2 mm 5 mps 704 mmHg 90%
08:00 +8°C° 0.2 mm 5 mps 704 mmHg 91%
09:00 +9°C° 0.2 mm 5 mps 703 mmHg 91%
10:00 +10°C° 0.2 mm 5 mps 703 mmHg 90%
11:00 +10°C° 0.2 mm 5 mps 703 mmHg 90%
12:00 +10°C° 0.6 mm 5 mps 703 mmHg 91%
13:00 +12°C° 0.6 mm 4 mps 703 mmHg 93%
14:00 +12°C° 0.6 mm 4 mps 703 mmHg 95%
15:00 +12°C° 0.3 mm 4 mps 703 mmHg 95%
16:00 +11°C° 0.3 mm 3 mps 704 mmHg 96%
17:00 +11°C° 0.3 mm 3 mps 704 mmHg 96%
18:00 +10°C° 0.1 mm 3 mps 704 mmHg 95%
19:00 +10°C° 0.1 mm 3 mps 704 mmHg 95%
20:00 +9°C° 0.1 mm 3 mps 705 mmHg 94%
21:00 +9°C° 0.1 mm 3 mps 705 mmHg 95%
22:00 +9°C° 0.1 mm 3 mps 705 mmHg 95%
23:00 +8°C° 0.1 mm 3 mps 705 mmHg 95%

28 October, Wednesday

Time Temperature Precipitation Wind Pressure Humidity
00:00 +8°C° 0 mm 3 mps 705 mmHg 95%
01:00 +8°C° 0 mm 3 mps 704 mmHg 94%
02:00 +7°C° 0 mm 3 mps 704 mmHg 94%
03:00 +8°C° 0 mm 3 mps 705 mmHg 93%
04:00 +8°C° 0 mm 3 mps 705 mmHg 93%
05:00 +8°C° 0 mm 3 mps 705 mmHg 92%
06:00 +8°C° 0 mm 3 mps 706 mmHg 91%
07:00 +9°C° 0 mm 3 mps 706 mmHg 89%
08:00 +8°C° 0 mm 4 mps 706 mmHg 87%
09:00 +10°C° 0.1 mm 4 mps 707 mmHg 85%
10:00 +10°C° 0.1 mm 4 mps 707 mmHg 82%
11:00 +11°C° 0.1 mm 4 mps 707 mmHg 80%
12:00 +11°C° 0.1 mm 4 mps 707 mmHg 81%
13:00 +11°C° 0.1 mm 4 mps 707 mmHg 81%
14:00 +11°C° 0.1 mm 4 mps 707 mmHg 82%
15:00 +10°C° 0.1 mm 3 mps 708 mmHg 86%
16:00 +10°C° 0.1 mm 3 mps 708 mmHg 89%
17:00 +9°C° 0.1 mm 3 mps 708 mmHg 92%
18:00 +9°C° 0 mm 3 mps 708 mmHg 93%
19:00 +8°C° 0 mm 2 mps 709 mmHg 94%
20:00 +8°C° 0 mm 2 mps 709 mmHg 94%
21:00 +8°C° 0 mm 2 mps 709 mmHg 94%
22:00 +8°C° 0 mm 2 mps 709 mmHg 94%
23:00 +8°C° 0 mm 2 mps 709 mmHg 94%

29 October, Thursday

Time Temperature Precipitation Wind Pressure Humidity
00:00 +7°C° 0 mm 2 mps 709 mmHg 94%
01:00 +7°C° 0 mm 2 mps 709 mmHg 95%
02:00 +7°C° 0 mm 2 mps 709 mmHg 95%
03:00 +7°C° 0 mm 2 mps 709 mmHg 95%
04:00 +7°C° 0 mm 2 mps 709 mmHg 95%
05:00 +7°C° 0 mm 2 mps 709 mmHg 95%
06:00 +8°C° 0 mm 2 mps 709 mmHg 91%
07:00 +9°C° 0 mm 3 mps 709 mmHg 87%
08:00 +9°C° 0 mm 3 mps 709 mmHg 83%
09:00 +11°C° 0 mm 3 mps 710 mmHg 78%
10:00 +12°C° 0 mm 3 mps 710 mmHg 73%
11:00 +13°C° 0 mm 3 mps 710 mmHg 69%
12:00 +13°C° 0 mm 3 mps 709 mmHg 68%
13:00 +13°C° 0 mm 3 mps 709 mmHg 67%
14:00 +14°C° 0 mm 3 mps 709 mmHg 66%
15:00 +13°C° 0 mm 2 mps 709 mmHg 72%
16:00 +12°C° 0 mm 2 mps 709 mmHg 78%
17:00 +10°C° 0 mm 2 mps 709 mmHg 84%
18:00 +10°C° 0 mm 2 mps 709 mmHg 86%
19:00 +9°C° 0 mm 2 mps 709 mmHg 88%
20:00 +8°C° 0 mm 2 mps 709 mmHg 90%
21:00 +8°C° 0 mm 2 mps 709 mmHg 90%
22:00 +8°C° 0 mm 2 mps 708 mmHg 91%
23:00 +7°C° 0 mm 2 mps 708 mmHg 92%

30 October, Friday

Time Temperature Precipitation Wind Pressure Humidity
00:00 +8°C° 0 mm 2 mps 708 mmHg 91%
01:00 +8°C° 0 mm 2 mps 707 mmHg 90%
02:00 +8°C° 0 mm 2 mps 707 mmHg 90%
03:00 +7°C° 0 mm 2 mps 707 mmHg 89%
04:00 +7°C° 0 mm 2 mps 707 mmHg 89%
05:00 +7°C° 0 mm 2 mps 706 mmHg 89%
06:00 +8°C° 0 mm 2 mps 706 mmHg 83%
07:00 +9°C° 0 mm 3 mps 707 mmHg 77%
08:00 +10°C° 0 mm 3 mps 707 mmHg 72%
09:00 +12°C° 0 mm 3 mps 707 mmHg 66%
10:00 +13°C° 0 mm 4 mps 707 mmHg 61%
11:00 +15°C° 0 mm 4 mps 706 mmHg 55%
12:00 +15°C° 0 mm 4 mps 706 mmHg 57%
13:00 +15°C° 0 mm 4 mps 705 mmHg 59%
14:00 +15°C° 0 mm 5 mps 705 mmHg 61%
15:00 +14°C° 0 mm 4 mps 704 mmHg 65%
16:00 +14°C° 0 mm 4 mps 704 mmHg 68%
17:00 +13°C° 0 mm 4 mps 704 mmHg 72%
18:00 +13°C° 0.2 mm 4 mps 704 mmHg 74%
19:00 +13°C° 0.2 mm 5 mps 704 mmHg 76%
20:00 +13°C° 0.2 mm 5 mps 704 mmHg 78%
21:00 +12°C° 2.5 mm 4 mps 704 mmHg 84%
22:00 +12°C° 2.5 mm 4 mps 704 mmHg 90%
23:00 +11°C° 2.5 mm 3 mps 704 mmHg 96%
Show more